DateTime,F1_A11,F1_S11,BsB_S11,BsG_S11,BsR_S11,BbsB_S11,BbsG_S11,BbsR_S11,BaB_A11,BaG_A11,BaR_A11,T_S11,U_S11,P_S11,T1_A11
2016-06-21T00:00:00Z,0000388,20000608,,,,,,,,,,26.5,01.8,0665.0,34.5
2016-06-21T00:01:00Z,0000388,20000608,,,,,,,,,,26.5,01.8,0665.0,34.5
2016-06-21T00:02:00Z,0000388,20000608,,,,,,,,,,26.5,01.8,0665.0,34.5
2016-06-21T00:03:00Z,0000388,60000608,,,,,,,,,,26.5,01.8,0665.0,34.5
2016-06-21T00:04:00Z,0000388,40000608,0002.44,0001.17,0000.74,-000.03,-000.06,-000.03,0000.20,0000.23,-000.00,26.6,01.7,0665.8,34.5
2016-06-21T00:05:00Z,0000388,00000608,0001.89,0001.28,0001.56,0000.25,0000.09,0000.05,-000.05,0000.18,0000.06,26.6,01.8,0665.8,34.5
2016-06-21T00:06:00Z,0000388,00000608,0001.79,0001.15,0001.29,0000.33,0000.21,-000.03,0000.29,0000.09,0000.57,26.6,01.8,0665.8,34.5
2016-06-21T00:07:00Z,0000388,00000608,0002.29,0001.63,0001.51,-000.03,-000.21,0000.13,-000.01,0000.04,-000.25,26.6,01.8,0665.8,34.5
2016-06-21T00:08:00Z,0000388,00000608,0001.91,0001.52,0001.42,0000.06,0000.17,0000.06,0000.19,0000.04,-000.21,26.5,01.7,0665.8,34.5
2016-06-21T00:09:00Z,0000388,00000608,0002.32,0001.43,0001.06,-000.13,0000.14,0000.16,-000.04,0000.07,0000.04,26.5,01.7,0665.8,34.5
2016-06-21T00:10:00Z,0000388,00000608,0001.70,0001.39,0000.78,0000.10,0000.16,0000.19,0000.14,0000.09,0000.34,26.5,01.7,0665.8,34.5
2016-06-21T00:11:00Z,0000388,00000608,0001.59,0001.09,0001.06,0000.16,0000.22,0000.14,0000.31,0000.19,-000.10,26.5,01.8,0665.8,34.5
2016-06-21T00:12:00Z,0000388,00000608,0002.78,0001.40,0000.98,0000.60,0000.28,0000.29,0000.03,0000.11,0000.64,26.5,01.8,0665.8,34.5
2016-06-21T00:13:00Z,0000388,00000608,0001.62,0001.83,0000.76,-000.52,0000.35,0000.21,0000.25,0000.25,0000.01,26.5,01.8,0665.9,34.5
2016-06-21T00:14:00Z,0000388,00000608,0002.52,0001.43,0001.38,-000.13,0000.14,0000.30,0000.00,0000.13,-000.02,26.5,01.7,0665.9,34.5
2016-06-21T00:15:00Z,0000388,00000608,0001.96,0001.46,0001.30,-000.49,0000.03,0000.40,0000.07,-000.16,-000.00,26.5,01.8,0665.9,34.5
2016-06-21T00:16:00Z,0000388,00000608,0001.07,0001.31,0001.03,0000.00,0000.03,0000.52,0000.24,0000.26,0000.12,26.5,01.8,0665.9,34.5
2016-06-21T00:17:00Z,0000388,00000608,0002.13,0001.53,0001.48,-000.02,0000.08,0000.59,0000.13,0000.16,-000.00,26.5,01.8,0665.9,34.5
2016-06-21T00:18:00Z,0000388,00000608,0002.23,0002.14,0001.37,0000.19,0000.28,0000.24,0000.08,0000.04,0000.23,26.5,01.7,0665.9,34.5
2016-06-21T00:19:00Z,0000388,00000608,0002.13,0001.26,0001.58,0000.27,0000.03,0000.17,-000.13,0000.13,0000.10,26.5,01.8,0665.9,34.5
2016-06-21T00:20:00Z,0000388,00000608,0003.29,0001.49,0000.98,0000.44,0000.16,0000.27,0000.39,0000.06,0000.08,26.5,01.8,0665.9,34.5
2016-06-21T00:21:00Z,0000388,00000608,0001.26,0001.94,0001.08,0000.11,0000.36,0000.14,0000.09,0000.13,-000.08,26.5,01.7,0665.9,34.5
2016-06-21T00:22:00Z,0000388,00000608,0001.54,0001.23,0001.07,0000.37,0000.36,-000.14,0000.20,0000.06,0000.23,26.5,01.8,0665.9,34.5
2016-06-21T00:23:00Z,0000380,00000600,0002.30,0001.23,0001.34,0000.73,0000.57,0000.19,-000.07,0000.18,-000.10,26.5,01.7,0665.9,34.5
2016-06-21T00:24:00Z,0000380,00000600,0002.62,0002.54,0001.31,0000.11,0000.36,0000.30,0000.06,0000.14,0000.32,26.6,01.8,0665.9,34.5
2016-06-21T00:25:00Z,0000380,00000600,0002.44,0001.33,0001.23,0000.56,0000.62,-000.19,0000.24,0000.06,-000.13,26.6,01.7,0665.9,34.5
2016-06-21T00:26:00Z,0000380,00000600,0002.22,0001.44,0001.33,0000.06,0000.24,0000.06,0000.24,0000.26,0000.26,26.6,01.7,0666.0,34.5
2016-06-21T00:27:00Z,0000380,00000600,0002.22,0001.93,0001.45,0000.16,0000.13,0000.24,0000.01,-000.16,-000.15,26.6,01.8,0666.0,34.5
2016-06-21T00:28:00Z,0000380,00000600,0001.65,0002.54,0001.32,0000.27,-000.08,0000.27,0000.17,0000.30,0000.30,26.6,01.7,0666.0,34.5
2016-06-21T00:29:00Z,0000380,00000600,0001.53,0002.05,0001.28,0000.27,0000.52,0000.08,0000.29,0000.17,-000.01,26.6,01.7,0666.0,34.5
2016-06-21T00:30:00Z,0000380,00000600,0002.29,0001.72,0001.66,0000.10,0000.33,0000.08,-000.09,0000.10,0000.26,26.6,01.8,0666.0,34.6
2016-06-21T00:31:00Z,0000380,00000600,0002.69,0001.67,0001.41,-000.17,0000.02,0000.76,0000.11,0000.11,0000.12,26.6,01.7,0666.1,34.6
2016-06-21T00:32:00Z,0000380,00000600,0001.76,0002.06,0001.13,0000.22,0000.35,0000.27,0000.05,0000.16,0000.27,26.6,01.7,0666.1,34.6
2016-06-21T00:33:00Z,0000380,00000600,0002.44,0001.30,0001.04,0000.29,0000.25,0000.57,0000.05,-000.08,-000.53,26.6,01.7,0666.1,34.6
2016-06-21T00:34:00Z,0000380,00000600,0002.03,0001.88,0000.83,-000.41,0000.17,0000.29,0000.22,0000.07,0000.41,26.7,01.7,0666.2,34.6
2016-06-21T00:35:00Z,0000380,00000600,0002.78,0001.28,0001.11,-000.10,0000.00,0000.33,0000.44,0000.12,0000.09,26.7,01.6,0666.2,34.6
2016-06-21T00:36:00Z,0000380,00000600,0002.84,0001.76,0001.51,0000.02,0000.24,0000.13,-000.14,0000.07,-000.06,26.7,01.6,0666.2,34.6
2016-06-21T00:37:00Z,0000380,00000600,0001.29,0001.85,0001.52,-000.05,0000.13,0000.06,0000.19,0000.18,0000.04,26.7,01.7,0666.2,34.6
2016-06-21T00:38:00Z,0000380,00000600,0001.76,0001.23,0001.37,0000.56,0000.06,0000.02,0000.17,0000.05,-000.12,26.7,01.6,0666.3,34.6
2016-06-21T00:39:00Z,0000380,00000600,0002.06,0001.94,0001.05,0000.59,0000.06,0000.37,-000.02,0000.03,0000.28,26.7,01.6,0666.3,34.6
2016-06-21T00:40:00Z,0000380,00000600,0002.56,0001.24,0001.09,0000.67,0000.09,0000.05,0000.10,0000.07,0000.02,26.7,01.5,0666.3,34.6
2016-06-21T00:41:00Z,0000380,00000600,0002.84,0001.52,0001.61,0000.51,-000.02,0000.29,0000.11,0000.13,-000.00,26.7,01.6,0666.3,34.6
2016-06-21T00:42:00Z,0000380,00000600,0003.12,0001.33,0001.08,0000.56,0000.27,0000.17,0000.18,0000.10,0000.37,26.7,01.6,0666.4,34.6
2016-06-21T00:43:00Z,0000380,00000600,0001.62,0001.71,0001.16,-000.02,-000.11,0000.10,-000.03,0000.16,0000.05,26.7,01.6,0666.4,34.6
2016-06-21T00:44:00Z,0000380,00000600,0002.26,0001.85,0001.09,-000.46,0000.13,0000.02,0000.26,0000.00,-000.10,26.7,01.6,0666.4,34.6
2016-06-21T00:45:00Z,0000380,00000600,0001.47,0001.48,0001.66,0000.33,0000.02,0000.60,0000.03,0000.23,0000.01,26.7,01.5,0666.4,34.6
2016-06-21T00:46:00Z,0000380,00000600,0002.26,0001.86,0001.25,-000.03,0000.40,0000.30,-000.02,0000.11,0000.21,26.7,01.6,0666.4,34.6
2016-06-21T00:47:00Z,0000380,00000600,0002.16,0001.36,0001.33,0000.02,0000.19,0000.43,0000.31,0000.17,0000.15,26.7,01.5,0666.4,34.6
2016-06-21T00:48:00Z,0000380,00000600,0003.05,0001.66,0001.24,0000.37,0000.06,0000.32,0000.14,0000.12,0000.03,26.7,01.5,0666.4,34.6
2016-06-21T00:49:00Z,0000380,01000600,0002.76,0001.73,0000.91,0000.33,0000.16,0000.29,0000.11,-000.00,0000.02,26.7,01.6,0666.4,34.6
2016-06-21T00:50:00Z,0000380,00000600,0002.71,0001.69,0000.78,0000.24,0000.47,-000.03,0000.05,0000.12,0000.27,26.7,01.6,0666.4,34.6
2016-06-21T00:51:00Z,0000380,00000600,0002.58,0001.58,0001.47,-000.32,-000.25,0000.06,0000.18,0000.38,0000.18,26.8,01.6,0666.4,34.6
2016-06-21T00:52:00Z,0000380,00000600,0001.31,0001.25,0001.16,0000.41,0000.11,0000.25,0000.01,-000.05,0000.07,26.7,01.5,0666.4,34.6
2016-06-21T00:53:00Z,0000380,00000600,0002.03,0000.76,0000.93,-000.14,0000.27,0000.32,0000.35,0000.29,0000.08,26.7,01.6,0666.4,34.6
2016-06-21T00:54:00Z,0000380,00000600,0001.35,0001.73,0001.39,-000.27,0000.16,0000.60,0000.10,0000.12,0000.25,26.8,01.5,0666.4,34.6
2016-06-21T00:55:00Z,0000380,00000600,0001.91,0001.33,0001.42,0000.06,0000.13,-000.02,0000.05,-000.23,-000.20,26.8,01.6,0666.4,34.6
2016-06-21T00:56:00Z,0000380,00000600,0003.31,0001.63,0000.74,0000.41,0000.17,0000.08,0000.20,0000.33,0000.47,26.7,01.5,0666.4,34.6
2016-06-21T00:57:00Z,0000380,40000600,,,,,,,,,,,,0666.6,34.6
2016-06-21T00:58:00Z,0000380,60000600,,,,,,,,,,26.5,01.5,0665.6,34.6
2016-06-21T00:59:00Z,0000380,20000600,,,,,,,,,,26.5,01.5,0665.6,34.6
2016-06-21T01:00:00Z,0000380,20000600,,,,,,,,,,26.5,01.5,0665.6,34.6
2016-06-21T01:01:00Z,0000380,20000600,,,,,,,,,,26.5,01.5,0665.6,34.6
2016-06-21T01:02:00Z,0000380,20000600,,,,,,,,,,26.5,01.5,0665.6,34.6
2016-06-21T01:03:00Z,0000380,60000600,,,,,,,,,,26.6,01.5,0665.6,34.6
2016-06-21T01:04:00Z,0000380,41000600,0003.17,0001.51,0000.47,0000.68,0000.14,0000.08,0000.10,0000.08,0000.09,26.7,01.5,0666.5,34.6
2016-06-21T01:05:00Z,0000380,00000600,0002.56,0001.64,0000.40,0000.40,0000.03,0000.08,0000.23,-000.04,0000.02,26.8,01.4,0666.5,34.6
2016-06-21T01:06:00Z,0000380,01000600,0002.59,0001.75,0000.52,0000.43,0000.22,-000.11,-000.13,0000.19,0000.35,26.8,01.5,0666.5,34.6
2016-06-21T01:07:00Z,0000380,00000600,0002.52,0001.90,0000.89,0000.73,0000.82,-000.16,0000.12,0000.14,-000.10,26.8,01.4,0666.5,34.6
2016-06-21T01:08:00Z,0000380,00000600,0002.48,0001.85,0000.96,-000.33,0000.35,0000.25,0000.29,-000.13,-000.03,26.8,01.5,0666.5,34.6
2016-06-21T01:09:00Z,0000380,00000600,0002.76,0000.95,0000.59,0000.05,0000.09,-000.19,0000.20,0000.38,0000.08,26.8,01.4,0666.5,34.6
2016-06-21T01:10:00Z,0000380,00000600,0002.61,0001.11,0000.80,0000.33,0000.46,0000.03,-000.07,-000.00,0000.37,26.8,01.5,0666.5,34.6
2016-06-21T01:11:00Z,0000380,00000600,0001.54,0001.56,0001.04,0000.41,0000.25,0000.17,0000.26,0000.25,-000.02,26.8,01.5,0666.5,34.6
2016-06-21T01:12:00Z,0000380,00000600,0002.48,0000.83,0000.59,0000.59,0000.60,0000.13,0000.11,-000.00,-000.42,26.8,01.5,0666.5,34.6
2016-06-21T01:13:00Z,0000380,00000600,0003.19,0001.88,0000.42,-000.25,0000.27,0000.13,0000.11,0000.23,0000.83,26.8,01.6,0666.5,34.6
2016-06-21T01:14:00Z,0000380,00000600,0002.38,0001.09,0000.66,0000.03,0000.35,-000.05,0000.25,0000.31,0000.02,26.8,01.6,0666.5,34.6
2016-06-21T01:15:00Z,0000380,00000600,0002.86,0001.42,0001.02,0000.05,0000.60,0000.25,0000.25,0000.08,0000.37,26.8,01.7,0666.4,34.6
2016-06-21T01:16:00Z,0000380,00000600,0001.96,0001.21,0000.69,0000.95,0000.14,0000.22,0000.01,0000.13,-000.11,26.7,01.6,0666.4,34.6
2016-06-21T01:17:00Z,0000380,00000600,0003.76,0001.26,0000.73,0000.75,0000.13,-000.17,0000.10,0000.06,-000.12,26.7,01.7,0666.4,34.6
2016-06-21T01:18:00Z,0000380,00000600,0002.95,0001.22,0001.09,0000.27,0000.74,0000.10,0000.09,0000.09,0000.30,26.7,01.6,0666.4,34.6
2016-06-21T01:19:00Z,0000380,00000600,0002.05,0001.66,0000.95,0000.22,0000.25,-000.03,0000.15,0000.16,0000.01,26.7,01.6,0666.4,34.6
2016-06-21T01:20:00Z,0000380,00000600,0002.11,0001.27,0000.73,0000.38,0000.52,0000.05,0000.42,0000.18,0000.31,26.7,01.6,0666.4,34.6
2016-06-21T01:21:00Z,0000380,00000600,0002.86,0001.68,0000.85,0000.29,0000.40,0000.41,-000.10,0000.09,-000.09,26.7,01.6,0666.4,34.6
2016-06-21T01:22:00Z,0000380,00010600,0002.14,0001.50,0000.85,0000.57,0000.43,0000.02,-000.04,0000.13,0000.14,26.7,01.5,0666.4,34.6
2016-06-21T01:23:00Z,0000380,00000600,0002.42,0001.41,0000.82,0000.44,0000.14,0000.13,0000.17,0000.07,-000.18,26.7,01.6,0666.4,34.6
2016-06-21T01:24:00Z,0000380,00000600,0002.83,0001.48,0000.87,0000.06,0000.30,0000.35,0000.14,-000.06,0000.11,26.7,01.7,0666.4,34.6
2016-06-21T01:25:00Z,0000380,00000600,0001.99,0002.05,0000.68,0000.78,0000.79,0000.25,0000.13,0000.11,0000.25,26.7,01.6,0666.4,34.6
2016-06-21T01:26:00Z,0000380,00000600,0002.49,0001.40,0001.35,0000.59,0000.51,0000.03,-000.08,-000.01,-000.11,26.7,01.6,0666.4,34.6
2016-06-21T01:27:00Z,0000380,00000600,0003.02,0001.50,0000.68,0000.27,-000.02,0000.25,0000.23,0000.36,0000.29,26.7,01.6,0666.4,34.6
2016-06-21T01:28:00Z,0000380,00000600,0002.71,0000.98,0001.01,0000.56,0000.36,0000.16,0000.02,-000.18,-000.13,26.7,01.6,0666.4,34.6
2016-06-21T01:29:00Z,0000380,00000600,0002.00,0001.40,0001.35,0000.29,0000.58,0000.30,0000.09,0000.22,-000.11,26.7,01.6,0666.4,34.6
2016-06-21T01:30:00Z,0000380,00000600,0002.62,0001.82,0000.61,0000.27,0000.73,0000.00,0000.16,0000.10,0000.17,26.7,01.5,0666.4,34.6
2016-06-21T01:31:00Z,0000380,01000600,0001.54,0001.44,0001.02,0000.83,0000.22,0000.35,0000.11,0000.08,0000.08,26.7,01.5,0666.4,34.6
2016-06-21T01:32:00Z,0000380,00000600,0002.79,0000.99,0001.02,0000.68,0000.46,0000.05,-000.08,0000.05,0000.37,26.7,01.5,0666.4,34.6
2016-06-21T01:33:00Z,0000380,00000600,0002.91,0001.89,0000.20,0000.43,0000.71,-000.05,0000.28,0000.18,0000.02,26.7,01.5,0666.4,34.6
2016-06-21T01:34:00Z,0000380,01000600,0001.98,0001.43,0001.02,0000.08,0000.33,0000.51,0000.23,0000.08,-000.03,26.7,01.4,0666.4,34.6
2016-06-21T01:35:00Z,0000380,01000600,0001.92,0001.30,0000.51,0000.16,0000.00,-000.37,-000.26,-000.01,-000.13,26.7,01.4,0666.4,34.6
2016-06-21T01:36:00Z,0000380,01000600,0002.54,0000.95,0001.32,0000.35,0000.32,0000.27,0000.30,0000.13,0000.26,26.7,01.4,0666.4,34.6
2016-06-21T01:37:00Z,0000380,00000600,0001.52,0001.01,0000.82,0000.48,0000.03,0000.27,0000.11,0000.16,0000.23,26.7,01.5,0666.4,34.6
2016-06-21T01:38:00Z,0000380,01000600,0002.24,0001.34,0001.06,0000.11,0000.41,0000.03,0000.12,0000.10,-000.19,26.7,01.4,0666.4,34.6
2016-06-21T01:39:00Z,0000380,01000600,0002.35,0001.19,0000.99,0000.33,0000.63,0000.17,0000.21,0000.09,0000.58,26.7,01.4,0666.4,34.6
2016-06-21T01:40:00Z,0000380,01000600,0002.57,0001.28,0001.09,0000.02,0000.49,0000.00,0000.08,0000.16,-000.08,26.7,01.4,0666.4,34.6
2016-06-21T01:41:00Z,0000380,01000600,0002.65,0001.01,0001.00,0000.59,0000.09,0000.29,0000.05,-000.18,-000.24,26.7,01.4,0666.4,34.6
2016-06-21T01:42:00Z,0000380,01000600,0002.01,0001.50,0000.86,0000.40,0000.28,-000.10,0000.01,0000.23,0000.06,26.7,01.4,0666.4,34.6
2016-06-21T01:43:00Z,0000380,01000600,0003.06,0001.43,0000.89,0000.83,0000.58,0000.46,0000.14,0000.15,0000.13,26.7,01.4,0666.4,34.6
2016-06-21T01:44:00Z,0000380,01000600,0002.39,0001.73,0001.31,0000.49,0000.49,0000.65,-000.13,0000.13,0000.15,26.7,01.3,0666.4,34.6
2016-06-21T01:45:00Z,0000380,01000600,0002.60,0001.32,0000.98,0000.33,0000.38,0000.27,0000.35,0000.05,0000.01,26.7,01.3,0666.4,34.6
2016-06-21T01:46:00Z,0000380,00000600,0002.59,0001.54,0001.07,0000.29,0000.27,0000.16,0000.27,0000.19,0000.09,26.7,01.4,0666.4,34.6
2016-06-21T01:47:00Z,0000380,01000600,0001.58,0001.40,0000.62,0000.29,0000.17,0000.30,0000.15,0000.12,0000.23,26.7,01.4,0666.3,34.6
2016-06-21T01:48:00Z,0000380,01000600,0002.63,0001.38,0001.23,0000.59,0000.49,0000.52,0000.09,0000.17,0000.19,26.7,01.4,0666.3,34.6
2016-06-21T01:49:00Z,0000380,00000600,0002.19,0000.71,0001.21,0000.10,0000.46,0000.25,-000.10,-000.07,0000.00,26.7,01.4,0666.3,34.6
2016-06-21T01:50:00Z,0000380,00000600,0002.21,0001.30,0000.95,0000.60,0000.38,0000.24,0000.43,0000.13,0000.08,26.7,01.4,0666.3,34.6
2016-06-21T01:51:00Z,0000380,01000600,0002.71,0000.98,0000.69,0000.56,0000.62,0000.43,-000.13,0000.25,-000.04,26.7,01.4,0666.3,34.6
2016-06-21T01:52:00Z,0000380,01000600,0002.66,0000.93,0000.95,0000.46,0000.46,0000.13,0000.06,0000.02,0000.29,26.7,01.4,0666.3,34.6
2016-06-21T01:53:00Z,0000380,01000600,0001.89,0001.64,0001.03,0000.48,0000.66,0000.14,0000.14,0000.02,0000.07,26.7,01.3,0666.3,34.6
2016-06-21T01:54:00Z,0000380,01000600,0002.42,0001.55,0000.62,0000.54,0000.21,0000.38,0000.06,0000.09,-000.23,26.7,01.3,0666.3,34.6
2016-06-21T01:55:00Z,0000380,01000600,0002.07,0000.83,0001.19,-000.29,0000.74,0000.11,0000.09,0000.14,0000.08,26.7,01.3,0666.3,34.6
2016-06-21T01:56:00Z,0000380,01000600,0001.93,0000.96,0000.50,0000.97,0000.49,-000.08,0000.28,0000.08,-000.06,26.7,01.2,0666.3,34.6
2016-06-21T01:57:00Z,0000380,40000600,,,,,,,,,,,,0666.5,34.6
2016-06-21T01:58:00Z,0000380,60000600,,,,,,,,,,26.5,01.3,0665.5,34.6
2016-06-21T01:59:00Z,0000380,20000600,,,,,,,,,,26.5,01.3,0665.5,34.6
2016-06-21T02:00:00Z,0000388,20000608,,,,,,,,,,26.5,01.3,0665.5,34.6
2016-06-21T02:01:00Z,0000388,20000608,,,,,,,,,,26.5,01.1,0665.5,34.6
2016-06-21T02:02:00Z,0000388,20000608,,,,,,,,,,26.5,01.1,0665.5,34.6
2016-06-21T02:03:00Z,0000388,60000608,,,,,,,,,,26.5,01.1,0665.5,34.6
2016-06-21T02:04:00Z,0000388,41000608,0002.77,0001.76,0000.77,0000.21,0000.60,0000.65,0000.08,0000.13,0000.03,26.7,01.2,0666.3,34.6
2016-06-21T02:05:00Z,0000388,01000608,0002.38,0001.13,0000.27,0000.56,0000.03,0000.19,0000.35,0000.07,0000.28,26.7,01.2,0666.4,34.6
2016-06-21T02:06:00Z,0000388,01000608,0001.48,0002.11,0000.59,-000.11,0000.08,0000.30,0000.11,0000.08,-000.01,26.7,01.2,0666.4,34.6
2016-06-21T02:07:00Z,0000388,01000608,0002.92,0000.88,0000.58,-000.05,-000.03,0000.11,0000.21,0000.31,0000.24,26.7,01.2,0666.4,34.6
2016-06-21T02:08:00Z,0000388,01000608,0001.87,0001.19,0000.38,-000.08,0000.11,0000.33,0000.01,0000.13,0000.11,26.7,01.2,0666.4,34.6
2016-06-21T02:09:00Z,0000388,01000608,0001.38,0001.24,0000.99,0000.30,0000.87,0000.37,-000.02,-000.01,0000.03,26.7,01.2,0666.4,34.6
2016-06-21T02:10:00Z,0000388,01000608,0001.97,0000.81,-000.10,-000.43,0000.35,-000.08,0000.39,0000.24,-000.02,26.7,01.2,0666.4,34.6
2016-06-21T02:11:00Z,0000388,01000608,0001.90,0001.34,0000.88,0000.35,0000.14,0000.49,0000.13,0000.07,0000.10,26.7,01.2,0666.4,34.6
2016-06-21T02:12:00Z,0000388,01000608,0002.58,0001.35,0000.82,0000.67,-000.19,0000.22,-000.04,0000.26,0000.13,26.7,01.2,0666.4,34.6
2016-06-21T02:13:00Z,0000388,01000608,0002.24,0001.81,0000.57,0000.54,0000.03,0000.57,-000.16,-000.33,-000.07,26.7,01.2,0666.5,34.6
2016-06-21T02:14:00Z,0000388,01000608,0002.04,0001.28,0001.00,0000.14,0000.19,0000.24,-000.29,-000.32,-000.58,26.7,00.9,0666.5,34.6
2016-06-21T02:15:00Z,0000388,01000608,0002.14,0001.72,0000.77,-000.06,0000.22,0000.51,-000.03,0000.01,0000.08,26.7,00.7,0666.6,34.6
2016-06-21T02:16:00Z,0000388,01000608,0002.10,0001.83,0001.01,-000.16,0000.24,0000.54,-000.16,-000.35,-000.37,26.7,00.5,0666.6,34.6
2016-06-21T02:17:00Z,0000388,01000608,0002.03,0001.78,0000.89,-000.13,0000.60,-000.05,-000.14,-000.10,-000.25,26.6,00.3,0666.6,34.6
2016-06-21T02:18:00Z,0000388,01000608,0002.14,0001.71,0000.89,-000.02,0000.52,0000.41,0000.14,-000.12,0000.13,26.7,00.3,0666.7,34.6
2016-06-21T02:19:00Z,0000388,01000608,0002.19,0001.62,0000.84,0000.30,0000.65,0000.62,0000.82,0000.92,0000.57,26.7,00.4,0666.7,34.6
2016-06-21T02:20:00Z,0000388,01000608,0001.79,0001.27,0000.87,-000.22,0000.36,0000.37,0000.53,0000.60,0000.93,26.6,00.8,0666.6,34.6
2016-06-21T02:21:00Z,0000388,01000608,0002.21,0001.32,0000.75,0000.17,0000.11,0000.13,0000.33,0000.28,0000.39,26.6,01.1,0666.7,34.6
2016-06-21T02:22:00Z,0000388,01000608,0001.86,0001.04,0000.50,-000.22,0000.35,-000.02,0000.14,0000.23,0000.15,26.6,01.2,0666.7,34.6
2016-06-21T02:23:00Z,0000388,01000608,0001.95,0001.01,0000.82,-000.19,-000.30,0000.30,0000.28,0000.26,0000.25,26.6,01.2,0666.7,34.6
2016-06-21T02:24:00Z,0000388,01000608,0001.74,0000.91,0000.56,-000.27,0000.52,0000.38,0000.17,0000.10,-000.03,26.6,01.3,0666.7,34.6
2016-06-21T02:25:00Z,0000388,01000608,0001.88,0001.33,0001.03,-000.06,0000.11,0000.52,0000.20,0000.22,0000.10,26.6,01.3,0666.7,34.6
2016-06-21T02:26:00Z,0000388,01000608,0002.33,0001.53,0000.90,-000.10,0000.54,0000.11,0000.02,-000.02,0000.06,26.6,01.4,0666.7,34.6
2016-06-21T02:27:00Z,0000388,00000608,0001.93,0001.82,0000.64,0000.21,0000.22,0000.32,0000.09,0000.35,0000.27,26.5,01.4,0666.8,34.6
2016-06-21T02:28:00Z,0000388,01000608,0000.89,0001.60,0000.77,-000.16,0000.38,0000.37,0000.29,-000.06,-000.13,26.5,01.5,0666.8,34.6
2016-06-21T02:29:00Z,0000388,00000608,0002.29,0000.85,0000.45,0000.38,0000.36,0000.67,0000.27,0000.29,0000.15,26.5,01.5,0666.8,34.6
2016-06-21T02:30:00Z,0000388,00000608,0002.63,0000.71,-000.03,0000.46,0000.19,-000.14,-000.14,-000.02,0000.09,26.5,01.6,0666.8,34.6
2016-06-21T02:31:00Z,0000388,00000608,0001.71,0001.25,0000.96,-000.13,0000.43,0000.02,0000.14,0000.42,0000.23,26.5,01.6,0666.8,34.6
2016-06-21T02:32:00Z,000038A,0000060A,0001.64,0001.53,0000.79,-000.32,0000.30,0000.25,0000.07,-000.00,0000.13,26.5,01.7,0666.8,34.6
2016-06-21T02:33:00Z,000038A,0000060A,0002.64,0001.35,0000.97,0000.32,-000.06,0000.33,0000.31,0000.13,0000.16,26.5,01.6,0666.8,34.6
2016-06-21T02:34:00Z,000038A,0000060A,0001.95,0000.99,0000.48,-000.51,0000.16,-000.10,-000.10,0000.02,0000.00,26.5,01.5,0666.9,34.6
2016-06-21T02:35:00Z,000038A,0000060A,0001.66,0001.70,0000.47,0000.98,-000.11,0000.36,0000.28,0000.27,0000.38,26.5,01.6,0666.9,34.6
2016-06-21T02:36:00Z,000038A,0000060A,0002.51,0001.68,0001.06,-000.24,0000.28,0000.43,0000.15,-000.25,-000.00,26.5,01.6,0666.9,34.6
2016-06-21T02:37:00Z,000038A,0100060A,0002.79,0000.97,0001.09,-000.32,-000.03,0000.24,0000.07,0000.33,0000.26,26.5,01.6,0666.9,34.6
2016-06-21T02:38:00Z,000038A,0000060A,0001.57,0001.73,0000.67,0000.36,0000.44,0000.67,-000.13,-000.24,-000.80,26.5,01.6,0666.9,34.6
2016-06-21T02:39:00Z,000038A,0100060A,0002.72,0001.44,0000.99,0000.46,0000.14,0000.35,0000.14,-000.13,0000.43,26.5,01.4,0666.9,34.6
2016-06-21T02:40:00Z,000038A,0100060A,0001.26,0000.87,0000.26,0000.00,0000.11,0000.05,-000.10,0000.30,0000.04,26.5,01.2,0666.9,34.6
2016-06-21T02:41:00Z,0000382,01000602,0002.21,0001.48,0000.65,-000.21,-000.05,0000.57,0000.05,-000.10,-000.17,26.5,01.2,0666.9,34.6
2016-06-21T02:42:00Z,0000382,01000602,0002.35,0001.19,0000.30,0000.14,0000.05,0000.30,0000.32,0000.29,0000.10,26.5,01.1,0666.9,34.6
2016-06-21T02:43:00Z,0000382,01000602,0002.39,0001.33,0000.99,0000.08,0000.46,0000.32,-000.13,-000.22,-000.01,26.5,01.2,0666.9,34.6
2016-06-21T02:44:00Z,0000382,01000602,0001.86,0001.63,0000.56,0000.19,0000.09,0000.52,0000.05,-000.13,-000.33,26.5,01.1,0666.9,34.6
2016-06-21T02:45:00Z,0000382,01000602,0002.18,0001.06,0000.40,-000.44,0000.25,-000.05,-000.01,0000.10,0000.24,26.5,00.9,0666.9,34.6
2016-06-21T02:46:00Z,0000382,01000602,0002.56,0001.07,0000.90,0000.48,0000.30,0000.08,0000.24,0000.07,-000.22,26.5,00.9,0666.9,34.6
2016-06-21T02:47:00Z,0000382,01000602,0001.77,0001.07,0001.06,0000.10,0000.11,0000.08,0000.02,0000.24,0000.47,26.5,00.9,0666.9,34.6
2016-06-21T02:48:00Z,0000382,01000602,0002.17,0001.12,0000.72,-000.51,0000.54,0000.16,0000.39,0000.32,0000.26,26.5,01.0,0666.9,34.6
2016-06-21T02:49:00Z,0000382,01000602,0002.10,0001.27,0000.92,0000.22,-000.02,0000.57,0000.21,0000.25,0000.27,26.5,01.1,0666.9,34.6
2016-06-21T02:50:00Z,0000382,01000602,0002.04,0001.40,0000.94,-000.05,0000.35,0000.17,0000.01,0000.19,-000.25,26.5,01.1,0666.9,34.6
2016-06-21T02:51:00Z,0000382,01000602,0002.54,0001.75,0000.44,-000.03,-000.33,0000.36,0000.13,0000.00,-000.12,26.5,01.1,0667.0,34.6
2016-06-21T02:52:00Z,0000382,01000602,0002.58,0000.85,0000.27,-000.36,0000.41,0000.13,-000.17,-000.05,0000.16,26.5,01.1,0667.0,34.6
2016-06-21T02:53:00Z,0000382,01000602,0002.58,0001.75,0000.70,-000.59,0000.14,0000.38,0000.11,-000.14,0000.10,26.5,01.0,0666.9,34.6
2016-06-21T02:54:00Z,000038A,0100060A,0002.28,0001.27,0000.78,0000.57,0000.49,0000.49,0000.08,0000.05,-000.14,26.5,00.9,0666.9,34.6
2016-06-21T02:55:00Z,000038A,0100060A,0002.46,0001.37,0000.45,-000.54,0000.08,0000.56,0000.47,0000.54,0000.20,26.5,00.8,0666.9,34.6
2016-06-21T02:56:00Z,000038A,0100060A,0001.95,0000.72,0000.85,0000.00,0000.00,0000.57,0000.05,0000.28,0000.83,26.5,01.0,0666.9,34.6
2016-06-21T02:57:00Z,000038A,4000060A,,,,,,,,,,,,0666.8,34.6
2016-06-21T02:58:00Z,000038A,6000060A,,,,,,,,,,26.5,01.2,0666.0,34.6
2016-06-21T02:59:00Z,0000388,20000608,,,,,,,,,,26.5,01.3,0666.1,34.6
2016-06-21T03:00:00Z,0000388,20000608,,,,,,,,,,26.4,01.3,0666.1,34.6
2016-06-21T03:01:00Z,0000388,20000608,,,,,,,,,,26.3,01.3,0666.0,34.6
2016-06-21T03:02:00Z,0000388,20000608,,,,,,,,,,26.3,01.3,0666.0,34.6
2016-06-21T03:03:00Z,0000388,60000608,,,,,,,,,,26.4,01.3,0666.0,34.6
2016-06-21T03:04:00Z,0000388,40000608,0002.08,0002.05,0000.97,0000.06,0000.30,0000.13,0000.19,0000.23,0000.34,26.5,01.6,0666.7,34.6
2016-06-21T03:05:00Z,0000388,00000608,0001.85,0001.66,0000.73,-000.02,-000.13,0000.13,0000.16,0000.04,0000.01,26.5,01.5,0666.8,34.6
2016-06-21T03:06:00Z,0000388,00000608,0001.44,0000.94,0000.74,0000.30,0000.02,-000.03,0000.36,0000.14,0000.30,26.5,01.6,0666.8,34.6
2016-06-21T03:07:00Z,0000388,00000608,0001.64,0001.41,0001.20,0000.22,-000.06,0000.24,-000.10,0000.21,-000.50,26.5,01.6,0666.8,34.6
2016-06-21T03:08:00Z,0000388,00000608,0003.06,0001.25,0001.18,0000.35,0000.19,-000.17,0000.19,-000.14,0000.48,26.5,01.6,0666.8,34.6
2016-06-21T03:09:00Z,0000388,00000608,0002.09,0001.05,0001.05,0000.05,0000.32,0000.00,0000.10,0000.46,0000.25,26.5,01.6,0666.8,34.6
2016-06-21T03:10:00Z,0000388,00000608,0002.46,0001.40,0001.05,0000.33,0000.14,0000.49,0000.10,0000.16,-000.06,26.5,01.6,0666.8,34.6
2016-06-21T03:11:00Z,0000388,00000608,0002.15,0002.14,0001.04,0000.46,0000.44,0000.38,0000.27,0000.15,0000.14,26.5,01.6,0666.8,34.6
2016-06-21T03:12:00Z,0000388,00000608,0001.56,0001.56,0000.52,0000.06,0000.41,0000.21,0000.06,-000.06,0000.01,26.5,01.6,0666.8,34.6